Kezdőlap
METAR-TAF:

METAR-TAF

Repülőterek :

Benson, Minnesota, Amerikai Egyesült Államok

földrajzi szélesség: 45-19N, földrajzi hosszúság: 095-39W, magasság: 317 m

Jelenlegi meteorológiai megfigyelések

A jelentés 29 perccel ezelõtt készült, 15:35 UTC
Nyugat-északnyugati szél 4 kt
Hőmérséklet 12°C
Páratartalom 28%
Légköri nyomás 1030 hPa
Látótávolság: 16.1 km
Derült ég

METAR: KBBB 111535Z AUTO 30004KT 10SM CLR 12/M06 A3043 RMK AO2

Idő: 11:04 (16:04 UTC)


TAF: hiányzik

Meteorológiai megfigyelések és előrejelzések több, mint 4000 repülőtéren (METAR és TAF jelentéseket).

A térképen piros és sárga pontok jelzik az elérhető meteorológiai állomásokat.

Mozgassa az egeret a pont fölött, hogy megjelenjen az állomás neve.

Azután kattintson az időjárási megfigyelések és előrejelzések megtekintéséhez.

A térkép megváltoztatása: kattintson a fekete keresztel jelölt zöld gombra ráközelítéshez, a vonallal jelölt zöld gombra távolításhoz, vagy a zöld nyilakra a szomszédos térképek eléréséhez.


METAR-TAF: